Location: Barton Flats Campground
(34.1722°N, 116.8753°W)
Time: 19:02:10
(UTC+00:00)

FALCON 9 DEB - Pass Details

Date: 08 August 2020
Orbit: 427 x 441 km, 53.0° (Epoch: 01 October)

Event Time Altitude Azimuth Distance (km) Brightness Sun altitude
Rises 12:04:17 0° 314° (NW) 2,423 6.7 -12.1°
Reaches altitude 10° 12:06:24 10° 313° (NW) 1,548 5.7 -11.7°
Maximum altitude 12:09:53 78° 228° (SW) 448 3.0 -11.1°
Drops below altitude 10° 12:13:19 10° 140° (SE) 1,529 6.1 -10.5°
Sets 12:15:24 0° 139° (SE) 2,390 7.1 -10.1°
